Flag for Germany Weather past 2 weeks in Schwabach, Bavaria, Germany

Now
55 °F

Clear.


Feels Like: 55 °F
Forecast: 54 / 78 °F
Wind: 2 mph from North

Location: Nuernberg

Current Time: Jul 24, 2014 at 4:37:16 AM

Latest Report: Jul 24, 2014 at 4:20 AM


Visibility: 10 mi

Pressure: 29.92 "Hg

Humidity: 94%

Dew point: 54 °F

Location of SchwabachLocation

Historic Weather in Schwabach — Graph

°F

Schwabach temperature yesterday

Maximum temperature yesterday: 81 °F (at 12:50 PM)
Minimum temperature yesterday: 57 °F (at 5:50 AM)
Average temperature yesterday: 71 °F

Past Weeks' High & Low Weather Summary

 TemperatureHumidityPressure
High90 °F (Jul 19, 3:20 PM)100% (Jul 9, 2:20 AM)30.18 "Hg (Jul 9, 2:20 AM)
Low54 °F (Jul 9, 4:50 AM)26% (Jul 19, 5:50 PM)29.71 "Hg (Jul 9, 3:50 AM)
Average68 °F74%29.96 "Hg
* Reported Jul 9 2:20 AM — Jul 24 2:50 AM, Schwabach, Weather by CustomWeather, © 2014

Note: Actual official high and low records may vary slightly from our data, if they occured in-between our weather recording intervals... More about our weather records

Advertising

Schwabach weather history for previous 24 hours

 ConditionsComfort  
Time TempWeatherWind HumidityBarometerVisibility
2:50 AM
Jul 24
57 °FClear.2 mph88%29.95 "Hg10 mi
2:20 AM59 °FClear.2 mph82%29.95 "Hg10 mi
1:50 AM59 °FClear.1 mph82%29.95 "Hg10 mi
1:20 AM61 °FClear.2 mph77%29.95 "Hg10 mi
12:50 AM61 °FClear.1 mph77%29.98 "Hg10 mi
12:20 AM63 °FClear.1 mph77%29.98 "Hg10 mi
11:50 PM
Jul 23
64 °FClear.3 mph68%29.98 "Hg10 mi
11:20 PM68 °FClear.2 mph56%29.98 "Hg10 mi
10:50 PM70 °FPassing clouds.3 mph53%29.98 "HgN/A
10:20 PM70 °FClear.2 mph53%29.98 "Hg10 mi
9:50 PM72 °FPassing clouds.3 mph50%29.98 "HgN/A
9:20 PM73 °FPassing clouds.5 mph47%29.95 "HgN/A
8:50 PM75 °FSunny.2 mph44%29.95 "Hg10 mi
8:20 PM77 °FPassing clouds.3 mph42%29.95 "HgN/A
7:50 PM79 °FPassing clouds.5 mph42%29.95 "HgN/A
7:20 PM79 °FPassing clouds.6 mph39%29.95 "HgN/A
6:50 PM81 °FPassing clouds.6 mph37%29.95 "HgN/A
6:20 PM81 °FScattered clouds.8 mph32%29.95 "HgN/A
5:50 PM81 °FScattered clouds.9 mph32%29.95 "HgN/A
5:20 PM81 °FPartly sunny.7 mph37%29.95 "HgN/A
4:50 PM81 °FPartly sunny.5 mph37%29.98 "HgN/A
4:20 PM81 °FBroken clouds.7 mph39%29.98 "HgN/A
3:50 PM81 °FBroken clouds.8 mph37%29.98 "HgN/A
3:20 PM81 °FPassing clouds.9 mph37%29.98 "HgN/A
1:20 PM79 °FPassing clouds.6 mph42%30.01 "HgN/A
12:50 PM81 °FPassing clouds.9 mph42%30.01 "HgN/A
12:20 PM79 °FPassing clouds.9 mph42%30.01 "HgN/A
11:20 AM77 °FPartly sunny.8 mph51%30.01 "HgN/A
10:50 AM77 °FPartly sunny.9 mph51%30.04 "HgN/A
10:20 AM75 °FPassing clouds.6 mph54%30.04 "HgN/A
9:50 AM73 °FPassing clouds.7 mph57%30.04 "HgN/A
7:50 AM66 °FSunny.1 mph78%30.04 "Hg10 mi
7:20 AM63 °FSunny.1 mph88%30.01 "Hg10 mi
6:50 AM61 °FSunny.1 mph88%30.01 "Hg10 mi
6:20 AM57 °FFog.1 mph100%30.01 "HgN/A
5:50 AM57 °FFog.1 mph94%30.01 "HgN/A
5:20 AM59 °FFog.1 mph88%30.01 "HgN/A
4:50 AM59 °FClear.1 mph94%30.01 "Hg10 mi
4:20 AM59 °FClear.1 mph88%30.01 "Hg10 mi
Weather by CustomWeather, © 2014

See weather overviewHow to use our weather pages